Kosmos-158

operational
NORAD ID: 2801 Int'l Des: 1967-045 Owner: OKB10 Country: SU
LEOCIRCULAR

About Kosmos-158

Description loading...

Live Position

Loading 3D Globe...

Upcoming Passes

Altitude History

Altitude vs Time

uPlot chart will show altitude changes over time

Two-Line Element Set

1 02801U 67045A 25314.85350101 .00000069 00000-0 31744-4 0 9999
2 02801 74.0381 106.4083 0056899 6.6005 353.5885 14.36910027 65069
Epoch: Nov 10, 2025 • Age: 18 hours

Current Status

Altitude 756.1 km
Velocity 7.49 km/s
Sub-Earth Point -40.47°S, 179.93°E
Type other

Large Constellations

Loading constellations...